Location: Nitra
(0.0000°N, 18.0833°E)
Time: 14:03:56
(UTC+02:00)

Transit 2A Rocket - Visible Passes

Search period start: 26 March 2023 00:00
Search period end: 05 April 2023 01:00
Orbit: 583 x 916 km, 66.7° (Epoch: 25 March)

Date Brightness Start Highest point End Pass type
(mag) Time Alt. Az. Time Alt. Az. Time Alt. Az.
30 Mar 7.2 20:42:29 10° N 20:43:21 14° N 20:43:21 14° N visible
31 Mar 6.9 20:00:47 10° NNE 20:02:23 14° NE 20:02:23 14° NE visible
31 Mar 7.8 21:41:49 10° NW 21:42:19 12° NW 21:42:19 12° NW visible
01 Apr 6.2 20:58:00 10° NNW 21:01:28 38° NW 21:01:28 38° NW visible
02 Apr 5.0 20:14:55 10° N 20:20:20 54° ENE 20:20:45 53° E visible
03 Apr 6.0 19:32:35 10° NNE 19:37:04 25° ENE 19:40:07 15° ESE visible
03 Apr 7.2 21:15:25 10° WNW 21:19:19 20° WSW 21:20:05 20° WSW visible
04 Apr 6.0 20:31:03 10° NW 20:36:13 44° WSW 20:39:33 19° S visible
